TimeEDT,TemperatureF,Dew PointF,Humidity,Sea Level PressureIn,VisibilityMPH,Wind Direction,Wind SpeedMPH,Gust SpeedMPH,PrecipitationIn,Events,Conditions,WindDirDegrees,DateUTC
10:55 AM,46.4,26.6,46,29.90,10.0,West,19.6,27.6,N/A,,Overcast,280,2012-10-05 14:55:00
11:15 AM,46.4,24.8,43,29.91,10.0,West,17.3,27.6,N/A,,Overcast,270,2012-10-05 15:15:00
11:35 AM,46.4,26.6,46,29.91,10.0,West,13.8,24.2,N/A,,Mostly Cloudy,270,2012-10-05 15:35:00
11:55 AM,46.4,26.6,46,29.91,10.0,West,18.4,24.2,N/A,,Overcast,260,2012-10-05 15:55:00
12:15 PM,48.2,26.6,43,29.90,10.0,WSW,17.3,24.2,N/A,,Overcast,240,2012-10-05 16:15:00
12:35 PM,48.2,26.6,43,29.91,10.0,West,19.6,28.8,N/A,,Mostly Cloudy,260,2012-10-05 16:35:00
1:15 PM,48.2,24.8,40,29.90,10.0,West,17.3,27.6,N/A,,Mostly Cloudy,260,2012-10-05 17:15:00
1:35 PM,51.8,26.6,38,29.89,10.0,West,18.4,28.8,N/A,,Mostly Cloudy,270,2012-10-05 17:35:00
1:55 PM,50.0,26.6,40,29.89,10.0,West,18.4,28.8,N/A,,Overcast,260,2012-10-05 17:55:00
2:35 PM,50.0,26.6,40,29.86,10.0,WNW,19.6,24.2,N/A,,Overcast,300,2012-10-05 18:35:00
2:55 PM,50.0,24.8,37,29.87,10.0,West,18.4,27.6,N/A,,Overcast,260,2012-10-05 18:55:00
3:15 PM,50.0,24.8,37,29.87,10.0,West,13.8,25.3,N/A,,Mostly Cloudy,280,2012-10-05 19:15:00
3:35 PM,50.0,24.8,37,29.86,10.0,West,16.1,24.2,N/A,,Overcast,280,2012-10-05 19:35:00
3:55 PM,50.0,24.8,37,29.86,10.0,WNW,19.6,26.5,N/A,,Overcast,290,2012-10-05 19:55:00
4:15 PM,50.0,24.8,37,29.88,10.0,West,18.4,28.8,N/A,,Overcast,280,2012-10-05 20:15:00
4:35 PM,48.2,24.8,40,29.88,10.0,WNW,12.7,26.5,N/A,,Overcast,290,2012-10-05 20:35:00
4:55 PM,48.2,26.6,43,29.88,10.0,West,16.1,21.9,N/A,,Overcast,270,2012-10-05 20:55:00
5:15 PM,48.2,24.8,40,29.87,10.0,West,17.3,26.5,N/A,,Overcast,280,2012-10-05 21:15:00
5:35 PM,48.2,26.6,43,29.87,10.0,West,20.7,25.3,N/A,,Overcast,280,2012-10-05 21:35:00
5:55 PM,46.4,24.8,43,29.89,10.0,West,17.3,-,N/A,,Overcast,280,2012-10-05 21:55:00
6:15 PM,46.4,24.8,43,29.90,10.0,WNW,19.6,24.2,N/A,,Overcast,290,2012-10-05 22:15:00
6:35 PM,44.6,24.8,46,29.90,10.0,West,15.0,26.5,N/A,,Overcast,270,2012-10-05 22:35:00
6:55 PM,44.6,24.8,46,29.89,10.0,WNW,16.1,25.3,N/A,,Overcast,290,2012-10-05 22:55:00
7:15 PM,44.6,23.0,43,29.90,10.0,WNW,20.7,27.6,N/A,,Overcast,290,2012-10-05 23:15:00
7:35 PM,44.6,24.8,46,29.92,10.0,West,11.5,24.2,N/A,,Overcast,280,2012-10-05 23:35:00
7:55 PM,42.8,24.8,49,29.91,10.0,West,10.4,19.6,N/A,,Overcast,280,2012-10-05 23:55:00
8:15 PM,42.8,24.8,49,29.91,10.0,West,13.8,-,N/A,,Overcast,270,2012-10-06 00:15:00
8:35 PM,42.8,24.8,49,29.91,10.0,West,13.8,21.9,N/A,,Overcast,270,2012-10-06 00:35:00
8:55 PM,42.8,24.8,49,29.92,10.0,West,11.5,24.2,N/A,,Overcast,260,2012-10-06 00:55:00
9:15 PM,42.8,24.8,49,29.92,10.0,West,12.7,-,N/A,,Mostly Cloudy,260,2012-10-06 01:15:00
9:55 PM,41.0,24.8,53,29.91,10.0,WSW,11.5,-,N/A,,Overcast,250,2012-10-06 01:55:00
10:15 PM,41.0,24.8,53,29.90,10.0,West,15.0,-,N/A,,Overcast,260,2012-10-06 02:15:00
10:35 PM,41.0,24.8,53,29.90,10.0,West,13.8,24.2,N/A,,Overcast,260,2012-10-06 02:35:00
10:55 PM,41.0,24.8,53,29.88,10.0,West,15.0,23.0,N/A,,Overcast,260,2012-10-06 02:55:00
11:35 PM,41.0,24.8,53,29.87,10.0,West,15.0,24.2,N/A,,Overcast,260,2012-10-06 03:35:00
11:55 PM,41.0,24.8,53,29.87,10.0,West,15.0,20.7,N/A,,Overcast,270,2012-10-06 03:55:00